Content
SEND FEEDBACK

Daily
Averages
Monthly
Summary
United States of America

ST. LOUIS, MISSOURI


Home > North America > United States > Missouri
Elevation: 163 meters     Latitude: 38 45N     Longitude: 090 22W

WEATHER
 
SELECT A DAY
Number of Records: 196,364;   Date Range: 1/1/95 - 7/26/14
 
SHARE

PRINT THIS DATA

[ ← Previous Day ]
WEATHER ALMANAC - FEBRUARY 8, 2013
[ Next Day → ]
[ °C ]   °F
Weather ElementAverageHighLow
Temperature35.1 °F37.4 °F (1:28 am)32 °F (11:54 pm)
Dewpoint28.2 °F33.8 °F (1:28 am)25 °F (10:54 pm)
Humidity76.3 %87 % (1:28 am)67 % (2:54 pm)
Barometer30.30 in30.39 in (7:54 pm)30.09 in (1:28 am)
Wind Speed8.3 mph16.1 mph (4:54 am)
Wind Gust19.6 mph (3:54 am)
Weather ElementAverage
Visibility8.6 mi
Wind DirectionSW (223.6 °)

Weather ElementTotal
Precipitation---
Heating Degree Days30.3 (Base 65)
Averaged from 25 records on February 8, 2013
WEATHER CONDITIONS BREAKOUT
WIND DIRECTION BREAKOUT
WEATHER BY HOUR - FEBRUARY 8, 2013
[ °C ]   °F
Local TimeTemperatureDewpointHumidityBarometerVisibilityWind DirectionWind SpeedGust SpeedPrecipitationEventsConditions
1:28 AM37.4 °F33.8 °F87 %30.09 in5.0 miNNW (330°)11.5 mphOvercast
1:54 AM37.4 °F33.8 °F87 %30.11 in4.0 miWNW (300°)12.7 mphOvercast
2:54 AM36.0 °F32.0 °F86 %30.13 in4.0 miWNW (300°)10.4 mphOvercast
3:54 AM36.0 °F32.0 °F86 %30.16 in4.0 miNW (320°)12.7 mph19.6 mphOvercast
4:54 AM35.1 °F30.0 °F82 %30.19 in5.0 miNNW (330°)16.1 mphHaze
5:54 AM34.0 °F28.9 °F82 %30.23 in8.0 miNNW (340°)10.4 mph18.4 mphOvercast
6:54 AM34.0 °F28.9 °F82 %30.27 in9.0 miNNW (330°)10.4 mphOvercast
7:54 AM34.0 °F28.9 °F82 %30.30 in8.0 miNNW (330°)13.8 mph19.6 mphOvercast
8:36 AM33.8 °F28.4 °F81 %30.31 in9.0 miNorth (360°)10.4 mph18.4 mphOvercast
8:54 AM34.0 °F28.0 °F79 %30.33 in9.0 miNNW (330°)10.4 mphOvercast
9:54 AM35.1 °F28.0 °F76 %30.34 in10.0 miNorth (350°)6.9 mphOvercast
10:54 AM35.1 °F27.0 °F72 %30.36 in10.0 miNNW (340°)9.2 mphOvercast
11:54 AM36.0 °F27.0 °F70 %30.36 in10.0 miNNE (20°)6.9 mphOvercast
12:54 PM36.0 °F27.0 °F70 %30.35 in10.0 miNorth (350°)8.1 mphOvercast
1:54 PM36.0 °F27.0 °F70 %30.34 in10.0 miNorth (350°)6.9 mphOvercast
2:54 PM37.0 °F27.0 °F67 %30.35 in10.0 miNorth (350°)6.9 mphOvercast
3:54 PM36.0 °F27.0 °F70 %30.37 in10.0 miCalmOvercast
4:54 PM36.0 °F27.0 °F70 %30.38 in10.0 miNNE (30°)4.6 mphOvercast
5:54 PM36.0 °F27.0 °F70 %30.36 in10.0 miNE (40°)4.6 mphOvercast
6:54 PM35.1 °F27.0 °F72 %30.36 in10.0 miEast (90°)8.1 mphOvercast
7:54 PM35.1 °F27.0 °F72 %30.39 in10.0 miNE (50°)3.5 mphOvercast
8:54 PM34.0 °F27.0 °F75 %30.38 in10.0 miEast (80°)4.6 mphOvercast
9:54 PM34.0 °F26.1 °F73 %30.39 in10.0 miEast (90°)5.8 mphOvercast
10:54 PM33.1 °F25.0 °F72 %30.37 in10.0 miEast (90°)6.9 mphOvercast
11:54 PM32.0 °F25.0 °F75 %30.37 in10.0 miEast (90°)6.9 mphOvercast
Hourly data recorded from KSUS, located miles away from St. Louis, Missouri







STORIES FROM OUR PARTNERS